This demonstration page uses our WeatherBlox Daily Observations layout. Learn more.

Hourly Observations for October 17, 2015

Temp ( °F °C ) Dew Point ( °F °C ) Humidity (%) Winds ( mph kmh ) Pressure ( in mb ) Visibility ( mi km ) Precip ( " mm )
12:15 am 00:15 Clear 44 6.5 25 -4 47 47 SSE 7 11 30.39 1029 10 16.0934 0 0
12:35 am 00:35 Clear 42 5.7 25 -3.9 50 50 SSE 8 13 30.39 1029 10 16.0934 0 0
12:55 am 00:55 Clear 45 7 25 -4.1 45 45 SSE 9 15 30.39 1029 10 16.0934 0 0
1:15 am 01:15 Clear 43 6.3 25 -4 48 48 SE 8 13 30.39 1029 10 16.0934 0 0
1:35 am 01:35 Clear 43 6.1 25 -4 49 49 SSE 8 13 30.39 1029 10 16.0934 0 0
1:55 am 01:55 Clear 43 6.2 25 -4 48 48 SSE 9 15 30.39 1029 10 16.0934 0 0
2:15 am 02:15 Clear 43 6 25 -3.8 50 50 SSE 9 15 30.39 1029 10 16.0934 0 0
2:35 am 02:35 Clear 43 6.1 26 -3.6 50 50 SSE 9 15 30.36 1028 10 16.0934 0 0
2:55 am 02:55 Clear 44 6.5 25 -3.7 48 48 SSE 9 15 30.36 1028 10 16.0934 0 0
3:15 am 03:15 Clear 43 6.1 25 -3.7 50 50 SSE 9 15 30.36 1028 10 16.0934 0 0
3:35 am 03:35 Clear 42 5.6 26 -3.6 52 52 SSE 8 13 30.36 1028 10 16.0934 0 0
3:55 am 03:55 Clear 41 5.2 26 -3.5 54 54 SSE 8 13 30.39 1029 10 16.0934 0 0
4:15 am 04:15 Clear 40 4.6 26 -3.5 56 56 SSE 9 15 30.39 1029 10 16.0934 0 0
4:35 am 04:35 Clear 40 4.2 26 -3.3 59 59 SSE 6 9 30.39 1029 10 16.0934 0 0
4:55 am 04:55 Clear 39 3.7 26 -3.5 60 60 SSE 8 13 30.39 1029 10 16.0934 0 0
5:15 am 05:15 Clear 39 4.1 26 -3.5 58 58 SSE 7 11 30.39 1029 10 16.0934 0 0
5:35 am 05:35 Clear 38 3.6 26 -3.5 60 60 SE 7 11 30.39 1029 10 16.0934 0 0
5:55 am 05:55 Clear 38 3.4 26 -3.1 63 63 SSE 7 11 30.39 1029 10 16.0934 0 0
6:15 am 06:15 Clear 38 3.6 27 -3 62 62 SSE 8 13 30.39 1029 10 16.0934 0 0
6:35 am 06:35 Clear 37 2.6 26 -3.1 66 66 SE 7 11 30.39 1029 10 16.0934 0 0
6:55 am 06:55 Clear 37 2.6 26 -3.1 66 66 SSE 6 9 30.39 1029 10 16.0934 0 0
7:15 am 07:15 Clear 37 2.9 27 -3 66 66 SSE 7 11 30.39 1029 10 16.0934 0 0
7:35 am 07:35 Clear 37 2.8 27 -2.7 67 67 SSE 5 7 30.39 1029 10 16.0934 0 0
7:55 am 07:55 Sunny 38 3.5 28 -2.2 67 67 SE 8 13 30.39 1029 10 16.0934 0 0
8:15 am 08:15 Sunny 39 4 28 -2.1 65 65 SSE 8 13 30.39 1029 10 16.0934 0 0
8:35 am 08:35 Sunny 42 5.4 29 -1.8 60 60 SSE 8 13 30.39 1029 10 16.0934 0 0
8:55 am 08:55 Sunny 45 7 29 -1.5 55 55 SSE 8 13 30.39 1029 10 16.0934 0 0
9:15 am 09:15 Sunny 48 8.7 29 -1.6 49 49 SSE 13 20 30.39 1029 10 16.0934 0 0
9:35 am 09:35 Sunny 50 10.1 29 -1.7 44 44 SSE 15 24 30.36 1028 10 16.0934 0 0
9:55 am 09:55 Sunny 52 11 28 -2 41 41 S 15 24 30.36 1028 10 16.0934 0 0
10:15 am 10:15 Sunny 54 12 28 -2 38 38 S 16 26 30.36 1028 10 16.0934 0 0
10:35 am 10:35 Sunny 56 13.2 28 -2.5 34 34 S 17 28 30.33 1027 10 16.0934 0 0
10:55 am 10:55 Sunny 56 13.5 28 -2.2 34 34 SSE 16 26 30.33 1027 10 16.0934 0 0
11:15 am 11:15 Partly Cloudy 58 14.5 27 -2.6 31 31 S 20 31 30.33 1027 10 16.0934 0 0
11:35 am 11:35 Mostly Cloudy 58 14.5 28 -2.5 31 31 S 17 28 30.33 1027 10 16.0934 0 0
11:55 am 11:55 Cloudy 59 15.2 27 -2.6 29 29 S 21 33 30.33 1027 10 16.0934 0 0
12:15 pm 12:15 Partly Cloudy 60 15.4 27 -2.7 29 29 SSE 20 31 30.3 1026 10 16.0934 0 0
12:35 pm 12:35 Sunny 60 15.8 27 -2.7 28 28 S 18 30 30.27 1025 10 16.0934 0 0
12:55 pm 12:55 Partly Cloudy 61 16.1 27 -2.7 28 28 SSE 20 31 30.27 1025 10 16.0934 0 0
1:15 pm 13:15 Partly Cloudy 62 16.8 27 -2.7 26 26 S 16 26 30.27 1025 10 16.0934 0 0
1:35 pm 13:35 Sunny 63 17.1 27 -3 25 25 S 20 31 30.24 1024 10 16.0934 0 0
1:55 pm 13:55 Partly Cloudy 63 17 26 -3.2 25 25 SSE 20 31 30.24 1024 10 16.0934 0 0
2:15 pm 14:15 Partly Cloudy 62 16.6 26 -3.6 25 25 S 17 28 30.24 1024 10 16.0934 0 0
2:35 pm 14:35 Partly Cloudy 63 17.3 26 -3.2 25 25 S 18 30 30.24 1024 10 16.0934 0 0
2:55 pm 14:55 Sunny 63 17.2 26 -3.5 24 24 SSE 20 31 30.21 1023 10 16.0934 0 0
3:15 pm 15:15 Sunny 64 17.6 26 -3.5 24 24 SSE 16 26 30.21 1023 10 16.0934 0 0
3:35 pm 15:35 Sunny 63 17.3 26 -3.4 24 24 SSE 20 31 30.21 1023 10 16.0934 0 0
3:55 pm 15:55 Sunny 64 17.5 26 -3.1 24 24 SSE 16 26 30.21 1023 10 16.0934 0 0
4:15 pm 16:15 Partly Cloudy 63 17.4 27 -2.8 25 25 S 18 30 30.21 1023 10 16.0934 0 0
4:35 pm 16:35 Partly Cloudy 63 17 27 -2.8 26 26 SSE 18 30 30.21 1023 10 16.0934 0 0
4:55 pm 16:55 Partly Cloudy 62 16.9 27 -2.8 26 26 SSE 16 26 30.21 1023 10 16.0934 0 0
5:15 pm 17:15 Sunny 62 16.5 27 -2.9 27 27 SSE 20 31 30.21 1023 10 16.0934 0 0
5:35 pm 17:35 Sunny 61 15.9 27 -2.9 28 28 SSE 17 28 30.21 1023 10 16.0934 0 0
5:55 pm 17:55 Sunny 60 15.4 27 -3 28 28 SSE 17 28 30.21 1023 10 16.0934 0 0
6:15 pm 18:15 Sunny 59 14.8 27 -2.6 30 30 SSE 15 24 30.18 1022 10 16.0934 0 0
6:35 pm 18:35 Sunny 57 13.7 27 -2.6 32 32 SSE 10 17 30.21 1023 10 16.0934 0 0
6:55 pm 18:55 Clear 55 13 27 -2.6 34 34 SSE 12 19 30.21 1023 10 16.0934 0 0
7:15 pm 19:15 Clear 54 12.1 27 -2.6 36 36 SSE 10 17 30.21 1023 10 16.0934 0 0
7:35 pm 19:35 Clear 51 10.8 28 -2.4 40 40 SSE 8 13 30.27 1025 10 16.0934 0 0
7:55 pm 19:55 Clear 49 9.6 28 -2.2 44 44 SSE 8 13 30.27 1025 10 16.0934 0 0
8:15 pm 20:15 Clear 48 9 28 -2.1 46 46 SSE 8 13 30.27 1025 10 16.0934 0 0
8:35 pm 20:35 Clear 47 8.2 28 -2 49 49 SE 7 11 30.3 1026 10 16.0934 0 0
8:55 pm 20:55 Clear 46 8 29 -1.9 50 50 SE 7 11 30.3 1026 10 16.0934 0 0
9:15 pm 21:15 Clear 46 7.5 29 -1.5 53 53 SE 8 13 30.24 1024 10 16.0934 0 0
9:35 pm 21:35 Clear 46 7.5 29 -1.4 54 54 SE 8 13 30.24 1024 10 16.0934 0 0
9:55 pm 21:55 Clear 46 7.6 30 -1.2 54 54 SSE 9 15 30.24 1024 10 16.0934 0 0
10:15 pm 22:15 Clear 45 7.4 30 -1 56 56 SSE 9 15 30.27 1025 10 16.0934 0 0
10:35 pm 22:35 Clear 46 7.5 30 -1 55 55 SSE 10 17 30.24 1024 10 16.0934 0 0
10:55 pm 22:55 Clear 46 7.5 30 -1 55 55 SSE 12 19 30.24 1024 10 16.0934 0 0
11:15 pm 23:15 Clear 45 7.3 30 -1.1 56 56 SSE 12 19 30.27 1025 10 16.0934 0 0
11:35 pm 23:35 Clear 45 7.2 30 -1.1 56 56 SSE 10 17 30.27 1025 10 16.0934 0 0
11:55 pm 23:55 Clear 46 7.5 30 -1.1 55 55 SSE 12 19 30.24 1024 10 16.0934 0 0

Powered by AerisWeather